TimeEST,TemperatureF,Dew PointF,Humidity,Sea Level PressureIn,VisibilityMPH,Wind Direction,Wind SpeedMPH,Gust SpeedMPH,PrecipitationIn,Events,Conditions,WindDirDegrees,DateUTC
12:53 AM,10.0,-4.0,53,29.18,10.0,West,19.6,38.0,N/A,,Overcast,260,2013-02-01 05:53:00
1:53 AM,9.0,-4.0,56,29.20,10.0,WSW,25.3,35.7,N/A,,Mostly Cloudy,250,2013-02-01 06:53:00
2:53 AM,8.1,-5.1,55,29.23,10.0,WSW,19.6,33.4,N/A,,Overcast,250,2013-02-01 07:53:00
3:53 AM,6.8,-5.8,56,29.21,10.0,WSW,21.9,34.5,N/A,,Overcast,250,2013-02-01 08:53:00
4:53 AM,5.0,-7.1,58,29.30,10.0,West,20.7,28.8,N/A,,Overcast,260,2013-02-01 09:53:00
5:53 AM,5.0,-6.0,61,29.33,10.0,WSW,13.8,26.5,N/A,,Overcast,250,2013-02-01 10:53:00
6:53 AM,3.9,-6.0,64,29.37,10.0,West,15.0,24.2,N/A,,Overcast,260,2013-02-01 11:53:00
7:53 AM,5.0,-4.0,66,29.41,10.0,WSW,12.7,21.9,N/A,,Overcast,250,2013-02-01 12:53:00
8:53 AM,6.1,-5.1,60,29.45,10.0,West,19.6,25.3,N/A,,Overcast,270,2013-02-01 13:53:00
9:53 AM,7.0,-4.0,61,29.49,10.0,West,19.6,29.9,N/A,,Overcast,260,2013-02-01 14:53:00
10:53 AM,8.1,-4.0,58,29.52,10.0,West,16.1,25.3,N/A,,Overcast,260,2013-02-01 15:53:00
11:53 AM,10.0,-2.0,58,29.55,10.0,West,10.4,27.6,N/A,,Overcast,270,2013-02-01 16:53:00
12:53 PM,10.0,-2.9,56,29.58,10.0,West,24.2,33.4,N/A,,Overcast,280,2013-02-01 17:53:00
1:53 PM,10.4,-2.2,57,29.55,10.0,West,20.7,28.8,N/A,,Overcast,260,2013-02-01 18:53:00
2:53 PM,8.1,-4.0,58,29.65,10.0,West,18.4,27.6,N/A,,Mostly Cloudy,280,2013-02-01 19:53:00
3:42 PM,6.8,-4.0,61,29.62,10.0,West,16.1,23.0,N/A,,Overcast,270,2013-02-01 20:42:00
3:53 PM,7.0,-4.0,61,29.69,10.0,West,16.1,24.2,N/A,,Overcast,280,2013-02-01 20:53:00
4:42 PM,6.8,-4.0,61,29.66,10.0,West,5.8,-,N/A,,Mostly Cloudy,280,2013-02-01 21:42:00
4:53 PM,6.1,-5.1,60,29.73,10.0,West,13.8,-,N/A,,Mostly Cloudy,280,2013-02-01 21:53:00
5:53 PM,5.0,-5.1,63,29.75,10.0,West,9.2,-,N/A,,Clear,270,2013-02-01 22:53:00
6:53 PM,3.9,-2.0,76,29.78,10.0,NNW,6.9,-,N/A,,Overcast,340,2013-02-01 23:53:00
7:53 PM,1.9,-4.0,76,29.81,10.0,NNW,10.4,-,0.00,,Overcast,340,2013-02-02 00:53:00
8:15 PM,1.4,-5.8,72,29.75,10.0,NNW,13.8,-,N/A,,Overcast,330,2013-02-02 01:15:00
8:53 PM,1.0,-7.1,69,29.84,10.0,NNW,12.7,-,N/A,,Scattered Clouds,330,2013-02-02 01:53:00
9:53 PM,-0.9,-8.0,72,29.87,10.0,NW,8.1,-,N/A,,Clear,310,2013-02-02 02:53:00
10:35 PM,-0.4,-9.4,66,29.83,10.0,NW,9.2,-,N/A,,Mostly Cloudy,320,2013-02-02 03:35:00
10:53 PM,-2.0,-9.0,72,29.91,10.0,NNW,4.6,-,N/A,,Overcast,330,2013-02-02 03:53:00